Home > Weather > Krasnodar > Past weeks

Flag for Russia Weather for the Past 2 Weeks in Krasnodar, Russia

Now
55 °F

Sprinkles. Fog.


Feels Like: 55 °F
Forecast: 52 / 66 °F
Wind: No wind

Location: Krasnodar Airport

Current Time: May 6, 2016 at 3:47:32 AM

Latest Report: May 6, 2016 at 3:00 AM


Visibility: 2 mi

Pressure: 29.83 "Hg

Humidity: 100%

Dew Point: 55 °F

Location of KrasnodarLocation

Historic Weather in Krasnodar — Graph

°F

Krasnodar Temperature Yesterday

Maximum temperature yesterday: 66 °F (at 12:30 PM)
Minimum temperature yesterday: 54 °F (at 5:30 AM)
Average temperature yesterday: 60 °F

High & Low Weather Summary for the Past Weeks

 TemperatureHumidityPressure
High75 °F (Apr 24, 3:30 PM)100% (May 4, 9:00 PM)30.24 "Hg (May 4, 9:00 PM)
Low37 °F (Apr 23, 4:30 AM)27% (May 3, 1:30 PM)29.42 "Hg (Apr 25, 7:00 AM)
Average58 °F65%29.90 "Hg
* Reported Apr 21 2:00 AM — May 6 2:30 AM, Krasnodar, Weather by CustomWeather, © 2016

Note: Actual official high and low records may vary slightly from our data, if they occured in-between our weather recording intervals... More about our weather records

Advertising

Krasnodar Weather History for the Previous 24 Hours

Scroll right to see more
 ConditionsComfort  
Time TempWeatherWind HumidityBarometerVisibility
2:30 AM
Fri, May 6
55 °FSprinkles. Fog.3 mph94%29.83 "Hg2 mi
2:00 AM55 °FSprinkles. Fog.6 mph94%29.83 "Hg2 mi
1:30 AM55 °FSprinkles. Fog.3 mph94%29.83 "Hg2 mi
1:00 AM55 °FClear.6 mph94%29.83 "Hg4 mi
12:30 AM55 °FClear.3 mph100%29.83 "Hg5 mi
12:00 AM57 °FClear.6 mph94%29.83 "Hg5 mi
11:30 PM
Thu, May 5
57 °FClear.3 mph94%29.83 "Hg4 mi
11:00 PM55 °FClear.1 mph88%29.83 "Hg4 mi
10:30 PM57 °FPassing clouds.1 mph82%29.83 "HgN/A
10:00 PM57 °FPassing clouds.1 mph88%29.83 "HgN/A
9:30 PM59 °FPartly cloudy.3 mph88%29.83 "HgN/A
9:00 PM59 °FThundershowers. Partly cloudy.No wind88%29.83 "HgN/A
8:30 PM59 °FThundershowers. Overcast.1 mph88%29.83 "HgN/A
8:00 PM59 °FCool.3 mph94%29.83 "HgN/A
7:30 PM61 °FCool.3 mph83%29.83 "HgN/A
7:00 PM63 °FMild.1 mph83%29.83 "HgN/A
6:30 PM63 °FMild.3 mph77%29.80 "HgN/A
6:00 PM63 °FMild.6 mph77%29.80 "HgN/A
5:30 PM64 °FPartly sunny.6 mph73%29.80 "HgN/A
5:00 PM64 °FMild.3 mph68%29.80 "HgN/A
4:30 PM64 °FThundershowers. Cloudy.3 mph73%29.80 "HgN/A
4:00 PM63 °FThunderstorms. Broken clouds.6 mph73%29.80 "HgN/A
3:30 PM64 °FThundershowers. Cloudy.8 mph68%29.80 "HgN/A
3:00 PM66 °FThunderstorms. Scattered clouds.6 mph64%29.80 "HgN/A
2:30 PM66 °FBroken clouds.3 mph60%29.80 "HgN/A
2:00 PM66 °FBroken clouds.3 mph60%29.80 "HgN/A
1:30 PM66 °FThundershowers. Cloudy.6 mph64%29.80 "HgN/A
1:00 PM66 °FPartly sunny.3 mph60%29.80 "HgN/A
12:30 PM66 °FMild.3 mph64%29.80 "HgN/A
12:00 PM64 °FPartly sunny.8 mph64%29.80 "HgN/A
11:30 AM63 °FPartly sunny.3 mph68%29.80 "HgN/A
11:00 AM63 °FScattered clouds.6 mph68%29.80 "HgN/A
10:30 AM63 °FScattered clouds.3 mph73%29.80 "HgN/A
10:00 AM61 °FScattered clouds.6 mph77%29.80 "HgN/A
9:30 AM63 °FPartly sunny.6 mph73%29.80 "HgN/A
9:00 AM61 °FScattered clouds.1 mph72%29.80 "HgN/A
8:30 AM59 °FScattered clouds.3 mph82%29.80 "HgN/A
8:00 AM59 °FScattered clouds.3 mph82%29.77 "HgN/A
7:30 AM59 °FClear.3 mph88%29.77 "Hg6 mi
7:00 AM57 °FPartly sunny.1 mph94%29.77 "Hg4 mi
6:30 AM55 °FPartly sunny.1 mph94%29.77 "Hg6 mi
6:00 AM55 °FPartly sunny.No wind94%29.77 "Hg4 mi
5:30 AM54 °FPartly sunny.3 mph100%29.77 "Hg5 mi
5:00 AM55 °FFog.3 mph94%29.77 "Hg3 mi
4:30 AM55 °FFog.1 mph100%29.74 "Hg3 mi
4:00 AM57 °FCool.3 mph94%29.74 "Hg4 mi
3:30 AM57 °FPassing clouds.3 mph94%29.74 "HgN/A
3:00 AM57 °FPassing clouds.1 mph94%29.74 "HgN/A
Weather by CustomWeather, © 2016

See weather overviewHow to use our weather pages